Wetbulb
46.98 41.39 38.21 42.37 45.35 45.59 44.66 43.19 42.25 45.31 48.70 46.99 45.44 45.78 46.84 49.03 47.97 47.96 48.13 47.71 49.10 50.51 55.12 60.42 61.68 60.04 57.78 57.82 56.96 57.25 56.09 54.76 54.01 51.72 50.70 49.97 48.53 48.95 48.32 48.91 49.78 49.28 48.87 49.21
43.06 38.94 45.35 47.73 47.49 46.63 45.70 43.40 42.58 44.87 48.48 47.76 45.65 45.14 46.38 48.76 48.76 48.98 49.10 49.49 48.15 48.60 50.32 55.41 58.86 58.50 57.13 56.95 56.23 56.13 56.03 55.10 53.81 52.21 50.83 50.36 49.34 48.36 47.65 47.78 47.88 48.35 47.97 48.03
41.61 45.43 49.45 47.87 46.24 44.96 44.06 42.65 42.11 42.74 46.82 45.66 43.62 42.53 44.00 47.98 49.42 50.77 50.90 50.76 50.42 49.65 49.67 53.30 57.47 56.64 55.79 55.84 55.33 55.77 55.72 55.07 54.18 52.89 51.43 50.06 48.07 46.51 45.67 45.40 45.38 46.30 47.37 48.08
43.95 48.13 47.22 46.19 45.50 45.73 40.51 47.09 47.31 45.67 43.65 35.37 43.40 33.74 41.29 45.84 47.31 48.29 49.12 49.17 49.36 50.41 51.47 53.16 55.93 54.39 54.95 55.56 55.57 55.46 54.97 54.45 53.78 52.03 50.37 49.12 45.34 43.77 44.40 44.31 44.86 45.42 46.89 47.07
42.83 45.14 44.92 44.15 45.06 47.47 43.40 47.00 45.11 45.47 39.46 37.73 38.78 37.49 38.76 45.62 45.49 46.53 48.46 49.00 49.22 49.95 50.75 51.89 53.35 53.64 52.00 53.31 52.23 54.16 54.19 53.92 53.28 52.23 50.37 48.86 46.20 45.44 44.71 44.27 44.38 44.56 44.96 46.11
44.64 49.20 46.65 45.45 47.44 46.27 46.12 43.86 43.01 42.34 39.42 30.64 38.32 38.84 35.98 40.17 43.79 45.81 47.80 48.87 49.59 49.73 50.60 52.69 55.28 53.49 51.86 51.92 51.76 52.55 53.49 53.03 52.53 51.62 49.73 48.15 46.67 45.35 43.90 43.69 43.42 43.49 44.10 44.34
43.07 43.78 47.48 48.62 43.80 45.06 43.05 39.01 30.89 28.24 28.98 28.87 40.76 38.11 38.98 44.80 46.92 47.06 46.45 47.34 49.11 50.17 50.18 50.91 51.89 52.05 51.14 51.28 51.41 51.92 52.38 52.02 52.06 50.39 49.43 48.63 47.87 45.15 44.38 44.20 43.65 42.77 42.51 42.64
35.99 34.48 44.17 47.82 45.00 41.35 41.56 39.34 32.01 26.57 26.09 30.91 40.00 34.16 39.46 46.62 48.00 47.91 47.56 45.57 45.99 47.33 50.07 49.89 50.77 50.83 50.93 51.36 51.24 51.17 51.25 50.77 51.55 50.03 49.20 49.75 49.25 46.08 45.34 45.10 44.64 43.69 43.23 43.11
35.83 36.67 45.06 46.72 47.63 46.60 41.70 36.84 41.89 36.60 35.52 26.34 33.36 38.13 44.58 47.35 47.01 47.49 46.97 44.66 42.83 44.41 45.24 47.27 50.12 50.90 49.70 50.74 50.81 49.98 50.24 50.10 49.67 49.96 49.46 49.60 49.61 46.86 45.91 45.55 44.76 44.67 44.02 44.28
40.23 33.76 42.85 43.31 44.61 44.63 42.22 44.90 35.72 35.92 27.30 26.99 32.23 34.02 35.08 40.45 42.56 45.17 44.48 43.39 42.48 44.98 45.07 45.97 46.83 48.74 49.88 49.94 50.86 49.11 48.71 48.60 48.75 48.54 48.77 49.09 48.63 47.14 47.21 46.08 43.61 43.80 44.14 43.63
40.73 37.60 37.32 41.49 38.34 36.81 37.98 36.94 38.55 37.62 33.43 25.89 24.67 28.80 40.59 40.45 43.05 42.13 43.44 44.10 42.04 43.82 44.41 45.38 46.47 48.05 49.30 49.51 50.12 48.51 48.03 47.27 46.82 47.11 47.15 46.26 45.74 46.33 44.94 44.10 42.93 42.48 42.58 42.66
41.01 37.52 32.29 36.27 42.85 43.11 40.67 38.26 37.96 28.00 28.73 29.47 27.13 28.18 43.70 41.80 43.13 43.41 42.25 42.76 41.99 45.79 44.37 44.93 45.91 47.41 47.54 48.72 48.30 47.55 46.89 46.26 45.40 45.41 44.45 43.71 44.12 44.50 42.80 41.74 41.22 40.69 40.63 40.62
39.25 32.69 24.95 29.72 37.55 40.64 37.15 39.29 38.67 38.39 36.17 30.28 28.69 28.28 42.75 42.69 40.78 41.65 41.44 40.04 41.01 42.17 43.81 43.81 43.92 44.90 45.47 45.98 47.24 46.57 46.15 45.79 45.12 44.45 44.18 44.11 43.21 42.31 40.28 39.72 39.96 39.69 39.53 36.85
41.19 34.35 29.14 23.67 28.68 33.39 31.21 33.63 35.57 35.08 27.46 27.56 28.83 32.25 36.98 38.62 38.61 39.66 39.81 39.59 39.95 41.23 43.16 42.95 43.74 44.19 44.96 45.32 45.23 46.09 44.93 44.82 45.09 45.70 44.45 43.49 43.09 40.55 38.60 38.14 38.40 37.91 37.03 35.67
36.45 26.57 29.31 32.60 34.36 34.66 33.14 32.59 33.17 31.37 32.08 27.23 30.86 31.77 35.86 38.03 37.36 38.43 39.68 40.54 40.91 40.99 42.65 44.41 43.60 43.30 43.71 43.85 43.59 44.26 44.54 44.18 45.40 44.38 43.47 42.79 41.21 38.69 37.80 37.10 37.32 37.02 35.25 34.33
37.21 26.68 27.71 26.44 32.58 33.65 30.43 32.27 32.32 32.82 33.15 32.46 31.94 31.11 37.92 39.04 40.18 40.03 40.61 41.19 40.95 41.42 43.23 43.07 43.81 44.40 44.51 44.24 43.52 43.67 43.34 43.54 43.51 42.92 42.22 41.04 37.97 37.11 35.96 36.11 35.95 35.24 33.45 31.88
33.92 29.82 27.24 23.76 30.76 29.59 24.39 30.48 32.26 33.23 34.75 33.79 27.93 33.20 37.59 37.46 39.26 39.84 40.69 41.63 41.24 41.75 42.18 42.46 42.70 43.89 43.67 43.02 42.54 41.09 41.32 41.66 41.56 39.99 40.06 38.33 36.24 35.04 35.04 35.37 34.21 32.23 31.95 32.33
31.34 30.59 27.41 23.28 25.74 8.54 28.76 35.33 35.20 32.81 34.22 35.16 35.22 35.41 36.18 36.96 39.23 40.18 42.41 41.19 41.59 42.85 43.27 42.93 42.18 41.98 42.07 42.40 41.54 40.33 40.18 38.72 36.50 37.66 36.52 35.37 34.44 33.49 33.01 32.48 32.03 31.88 32.32 31.82
34.25 30.29 22.50 15.64 20.48 25.03 28.35 31.96 31.32 29.57 28.83 35.00 33.86 37.80 38.89 40.16 39.38 40.29 43.57 43.21 41.80 42.76 43.53 42.21 42.20 41.67 40.39 40.44 41.26 42.00 35.29 34.58 34.04 33.68 32.95 32.92 32.83 31.85 31.76 31.73 31.73 31.77 31.56 30.80
33.18 31.90 25.13 20.21 14.34 13.29 25.09 33.66 36.56 34.99 22.25 37.70 37.53 37.02 37.95 38.85 28.02 34.35 42.61 42.18 41.27 42.02 42.56 41.36 39.46 39.12 40.41 40.49 39.71 35.49 33.31 33.31 32.77 32.57 32.27 32.26 32.06 32.02 31.76 31.56 30.98 31.37 31.14 29.83
23.77 23.16 21.33 21.06 18.46 23.46 31.95 34.82 36.55 21.85 23.49 36.90 37.77 37.31 36.96 33.83 36.51 40.34 40.01 37.60 37.98 39.56 40.02 41.06 39.08 37.29 37.73 37.63 36.13 32.77 32.59 32.23 32.36 32.26 32.18 31.94 31.78 31.19 31.23 30.27 30.29 29.58 28.48 27.08
23.59 21.87 20.90 18.92 15.43 13.77 35.53 34.50 28.23 32.09 37.15 36.90 36.77 37.89 37.66 37.88 41.16 38.47 38.47 35.31 34.93 34.29 37.64 39.39 36.41 35.88 38.19 36.67 35.36 32.54 32.20 31.98 32.24 32.02 31.08 29.88 30.13 30.79 30.28 29.51 29.39 29.21 27.69 25.99
21.12 25.59 23.39 25.24 22.67 31.76 35.86 35.01 38.03 39.39 35.84 37.35 37.23 37.78 39.12 39.13 37.28 38.76 36.74 34.58 33.31 34.54 37.28 38.59 35.42 34.83 37.57 36.17 35.53 33.01 31.85 31.99 31.78 30.39 29.02 28.81 29.55 29.80 29.85 28.69 28.09 27.69 27.32 25.74
29.06 33.11 27.42 27.56 31.01 31.31 33.50 35.81 36.49 38.29 37.86 37.69 37.36 36.57 37.70 33.79 32.17 32.69 33.68 32.30 34.04 35.36 37.26 37.64 35.34 34.37 33.97 35.68 35.19 33.54 32.35 32.24 30.29 28.33 27.96 28.16 28.08 27.86 28.83 28.97 28.56 27.13 26.28 25.56
26.46 29.65 26.58 26.34 29.45 32.41 34.29 34.88 35.37 35.84 36.76 36.00 36.65 36.70 37.83 38.41 37.25 38.71 36.30 34.12 34.71 34.81 37.04 37.71 35.98 34.70 31.97 33.13 32.54 32.86 32.30 31.03 28.85 27.74 27.72 27.71 27.90 27.35 27.60 28.33 27.94 27.99 28.33 27.68
28.90 26.48 23.49 23.33 29.98 30.09 30.45 34.15 36.10 34.73 34.63 35.47 35.74 36.98 39.46 40.75 41.99 41.54 40.23 37.69 37.68 35.53 36.53 36.63 35.11 31.74 30.23 31.61 31.75 32.05 31.65 30.25 28.58 27.18 27.11 26.87 26.66 26.89 26.95 27.08 26.93 29.87 29.99 30.15
MSLP
1012.05 1012.82 1012.79 1012.66 1012.27 1011.77 1011.57 1011.02 1010.09 1009.08 1008.16 1007.49 1007.16 1006.55 1005.95 1005.05 1004.87 1004.75 1004.78 1004.93 1004.77 1004.43 1004.23 1004.58 1005.49 1006.62 1008.20 1009.78 1011.03 1011.96 1013.44 1014.79 1015.68 1016.57 1017.21 1017.59 1017.87 1017.81 1017.92 1017.86 1017.94 1017.94 1018.16 1018.20
1012.09 1011.98 1011.71 1011.51 1011.34 1011.07 1010.71 1010.41 1009.69 1008.74 1008.21 1008.03 1007.44 1006.55 1006.16 1005.66 1005.21 1004.97 1004.86 1004.61 1004.69 1004.68 1004.43 1004.81 1005.59 1006.45 1007.63 1009.01 1010.30 1011.39 1012.37 1013.50 1014.76 1015.89 1016.79 1017.44 1017.83 1018.22 1018.37 1018.53 1018.72 1018.61 1018.59 1018.51
1011.08 1010.38 1010.31 1010.53 1010.17 1010.21 1010.03 1009.88 1009.43 1009.13 1008.83 1008.71 1008.23 1006.94 1006.49 1005.82 1005.42 1005.69 1005.67 1004.53 1004.94 1004.57 1004.29 1004.76 1005.77 1006.62 1007.82 1008.82 1009.74 1010.49 1011.57 1012.60 1013.75 1014.86 1015.75 1016.88 1017.76 1018.40 1018.78 1019.12 1019.26 1019.44 1019.24 1018.90
1010.11 1009.65 1009.41 1009.26 1009.16 1009.37 1009.33 1009.43 1009.26 1009.58 1009.77 1010.01 1009.86 1007.94 1007.53 1006.84 1006.55 1007.01 1007.31 1007.33 1007.33 1006.86 1006.06 1005.67 1006.21 1006.85 1007.66 1008.68 1010.00 1011.09 1012.12 1013.09 1013.98 1014.75 1015.53 1016.16 1016.92 1017.97 1018.71 1019.01 1019.47 1019.86 1019.77 1019.64
1009.57 1008.98 1008.89 1008.71 1008.61 1008.76 1009.12 1009.30 1009.87 1010.11 1010.51 1010.54 1010.66 1010.04 1007.67 1007.41 1007.51 1007.49 1008.22 1008.34 1008.40 1007.95 1007.80 1007.17 1007.46 1008.42 1009.34 1009.71 1010.55 1011.65 1012.67 1013.38 1013.83 1014.37 1015.08 1016.03 1016.96 1017.51 1017.82 1018.70 1019.36 1019.74 1020.05 1020.01
1009.57 1008.79 1008.78 1008.35 1008.32 1008.62 1009.07 1009.82 1010.44 1010.81 1011.43 1011.24 1010.55 1010.21 1008.65 1007.68 1007.92 1008.16 1008.50 1008.67 1008.70 1008.74 1008.59 1007.90 1007.79 1009.24 1010.40 1011.05 1011.57 1012.29 1013.02 1013.46 1013.96 1014.33 1014.98 1015.67 1016.43 1017.24 1018.20 1018.54 1019.08 1019.58 1019.86 1020.17
1009.45 1008.90 1008.28 1008.42 1008.57 1008.68 1009.23 1010.30 1011.62 1012.20 1012.51 1011.64 1010.51 1009.74 1008.66 1008.35 1008.42 1008.56 1008.78 1009.19 1009.23 1009.31 1009.36 1009.69 1010.23 1010.69 1011.09 1011.70 1012.02 1012.25 1012.65 1013.15 1013.75 1014.54 1014.67 1015.25 1015.77 1016.51 1017.23 1018.15 1018.42 1019.21 1019.68 1019.95
1009.37 1008.59 1007.83 1007.15 1007.70 1008.52 1009.24 1010.42 1011.65 1012.27 1012.96 1012.11 1011.19 1010.19 1009.59 1008.39 1008.23 1008.41 1008.74 1009.46 1009.86 1010.12 1010.28 1010.52 1011.10 1011.44 1011.89 1012.09 1012.12 1012.44 1012.90 1013.17 1013.53 1014.14 1014.62 1015.00 1015.47 1016.21 1016.67 1017.26 1017.76 1018.44 1019.09 1019.60
1008.88 1007.98 1006.95 1006.63 1007.02 1008.18 1009.09 1010.03 1011.38 1012.34 1013.43 1013.64 1012.16 1011.26 1010.33 1009.16 1009.01 1009.16 1009.23 1009.58 1009.96 1010.24 1010.51 1010.91 1011.38 1011.64 1011.91 1012.45 1012.58 1012.49 1012.86 1013.10 1013.68 1014.06 1014.36 1014.73 1015.28 1015.79 1016.41 1017.10 1017.48 1017.93 1018.65 1019.46
1008.78 1008.67 1007.71 1007.59 1007.59 1008.06 1008.81 1009.86 1011.49 1013.25 1014.27 1014.29 1012.47 1011.58 1010.66 1010.35 1010.06 1009.99 1010.28 1010.63 1010.59 1010.54 1010.86 1011.42 1011.99 1012.37 1012.31 1012.17 1012.52 1012.96 1013.32 1013.49 1013.91 1014.38 1014.55 1014.88 1015.23 1015.63 1016.07 1016.67 1017.36 1018.00 1018.43 1019.08
1009.10 1009.34 1008.90 1008.53 1008.84 1009.09 1009.63 1010.37 1011.52 1012.51 1013.66 1014.15 1013.59 1012.56 1011.42 1010.96 1010.58 1010.52 1010.58 1010.64 1010.82 1010.83 1011.10 1011.38 1011.86 1012.05 1012.29 1012.58 1012.83 1013.32 1013.65 1013.96 1014.25 1014.51 1014.93 1015.20 1015.66 1015.80 1016.14 1016.91 1017.38 1018.01 1018.75 1019.46
1009.80 1010.33 1010.48 1009.85 1009.51 1009.81 1010.27 1010.72 1011.64 1013.01 1014.00 1014.23 1014.07 1012.99 1011.44 1010.92 1010.74 1010.75 1010.86 1010.62 1010.55 1010.48 1010.81 1011.23 1011.45 1011.59 1012.04 1012.61 1013.25 1013.46 1013.74 1013.90 1013.99 1014.15 1014.90 1015.48 1015.75 1016.00 1016.43 1017.15 1017.76 1018.24 1018.99 1019.58
1010.50 1011.15 1011.96 1011.59 1011.39 1011.10 1011.40 1011.77 1012.56 1013.37 1014.41 1014.68 1014.78 1012.88 1011.56 1010.73 1010.71 1010.56 1010.51 1010.36 1010.44 1010.43 1010.65 1011.11 1011.62 1011.99 1012.36 1012.92 1013.31 1013.75 1014.00 1013.96 1014.14 1014.38 1014.74 1015.12 1015.82 1016.23 1016.85 1017.39 1017.80 1018.38 1019.12 1019.82
1011.05 1012.10 1012.82 1013.15 1013.45 1013.29 1013.10 1013.05 1013.41 1014.15 1015.10 1014.86 1014.56 1013.72 1011.71 1011.79 1011.55 1010.94 1010.76 1010.75 1010.62 1010.56 1010.48 1011.07 1011.82 1012.33 1012.54 1012.84 1013.41 1013.65 1014.00 1014.26 1014.30 1014.46 1014.79 1014.93 1015.29 1015.79 1016.74 1017.29 1017.63 1018.37 1018.83 1019.98
1012.19 1013.64 1014.15 1014.31 1014.64 1014.40 1014.11 1013.79 1013.78 1014.35 1014.52 1014.64 1013.89 1013.48 1011.38 1011.32 1011.24 1010.93 1010.59 1010.32 1010.24 1010.15 1010.91 1011.28 1011.96 1012.49 1012.52 1012.89 1013.41 1013.47 1013.74 1013.96 1014.14 1014.45 1014.79 1015.08 1015.61 1016.15 1016.72 1017.58 1017.98 1018.48 1018.94 1019.84
1013.13 1014.89 1015.44 1015.76 1015.40 1015.36 1014.78 1013.73 1013.99 1014.00 1014.07 1013.77 1013.52 1012.40 1011.76 1010.93 1010.54 1010.38 1010.27 1010.28 1010.10 1010.27 1011.21 1011.46 1012.11 1012.47 1012.81 1013.22 1013.36 1013.36 1013.59 1013.78 1013.84 1014.18 1014.83 1015.09 1015.59 1016.34 1017.06 1017.72 1018.50 1018.83 1019.86 1020.32
1014.10 1015.14 1016.07 1016.79 1016.29 1016.26 1015.44 1013.90 1013.67 1013.44 1013.35 1013.30 1012.84 1012.09 1011.55 1011.26 1010.62 1010.21 1010.02 1009.87 1010.42 1011.25 1011.78 1012.10 1012.54 1012.94 1013.37 1013.53 1013.18 1013.51 1013.71 1013.76 1014.13 1014.54 1014.90 1015.44 1015.99 1016.90 1017.60 1018.19 1018.87 1019.79 1020.53 1021.37
1014.29 1015.41 1016.47 1017.49 1017.28 1016.79 1014.08 1013.56 1013.47 1013.12 1012.79 1012.40 1012.17 1011.88 1011.48 1011.49 1011.23 1010.85 1010.94 1011.09 1011.44 1011.98 1012.34 1012.54 1012.56 1013.20 1013.68 1013.67 1013.65 1013.80 1013.97 1014.25 1014.78 1015.09 1015.63 1016.14 1016.45 1017.03 1017.77 1018.39 1019.05 1019.77 1020.40 1021.06
1014.70 1015.86 1017.30 1017.98 1017.78 1016.25 1014.13 1013.52 1013.26 1013.15 1012.88 1012.61 1012.35 1012.21 1011.99 1011.78 1011.50 1012.59 1012.75 1012.89 1013.08 1012.77 1012.89 1013.44 1013.78 1013.19 1014.11 1014.05 1013.90 1013.90 1014.45 1014.81 1015.41 1015.93 1016.30 1017.00 1017.42 1017.76 1018.36 1018.87 1019.63 1020.32 1021.03 1021.72
1014.70 1015.93 1017.37 1017.80 1017.71 1016.32 1013.67 1013.09 1012.84 1013.21 1013.04 1012.81 1012.71 1012.68 1012.53 1012.52 1013.32 1013.88 1013.84 1013.88 1013.97 1013.59 1013.30 1013.63 1014.25 1014.02 1014.69 1014.52 1014.46 1014.77 1014.95 1015.29 1015.93 1016.35 1016.87 1017.39 1017.82 1018.40 1019.14 1019.63 1020.21 1020.77 1021.36 1022.13
1014.80 1015.91 1016.74 1016.99 1017.12 1015.53 1013.28 1013.00 1012.88 1013.28 1013.86 1013.13 1013.09 1013.09 1013.25 1013.66 1013.75 1014.11 1014.19 1014.45 1015.13 1014.83 1013.63 1014.03 1014.67 1015.12 1014.93 1014.96 1015.14 1015.38 1015.29 1015.99 1016.26 1016.67 1017.18 1017.75 1018.09 1018.62 1019.19 1019.88 1020.44 1021.20 1021.95 1022.87
1014.47 1015.33 1015.83 1016.29 1016.38 1015.15 1012.74 1012.52 1012.76 1012.78 1012.70 1012.72 1012.93 1013.08 1013.24 1013.55 1014.09 1014.24 1014.19 1014.53 1015.33 1015.56 1015.05 1014.54 1015.33 1015.24 1014.97 1015.41 1015.31 1015.65 1015.72 1016.32 1016.61 1017.06 1017.54 1018.10 1018.65 1019.14 1019.55 1020.01 1020.76 1021.34 1022.21 1023.04
1014.21 1014.26 1014.79 1014.77 1014.05 1013.14 1012.30 1012.13 1012.07 1012.17 1012.41 1012.32 1012.66 1012.85 1012.81 1013.48 1014.25 1014.16 1014.22 1014.68 1015.07 1015.67 1014.49 1015.08 1014.83 1015.01 1015.43 1015.77 1015.35 1015.60 1016.12 1016.50 1016.82 1017.47 1018.12 1018.47 1018.91 1019.49 1019.96 1020.23 1021.04 1021.66 1022.33 1023.12
1013.85 1013.52 1013.73 1013.77 1012.29 1012.52 1012.18 1011.92 1011.84 1011.92 1011.79 1011.83 1011.83 1012.16 1012.33 1013.31 1013.51 1014.23 1014.35 1014.78 1014.90 1014.78 1014.55 1014.63 1014.91 1014.85 1015.46 1015.49 1015.49 1015.71 1016.21 1016.78 1017.04 1017.56 1018.25 1018.97 1019.28 1019.89 1020.35 1020.80 1021.15 1021.88 1022.43 1023.06
1014.38 1013.72 1013.48 1012.97 1012.45 1012.34 1011.63 1011.67 1011.69 1011.71 1011.70 1011.55 1011.60 1011.71 1011.96 1012.42 1012.98 1013.47 1014.21 1014.31 1014.31 1014.20 1014.04 1013.99 1014.48 1015.09 1015.34 1015.62 1015.81 1016.04 1016.30 1016.80 1017.45 1018.08 1018.48 1019.17 1019.77 1020.15 1020.70 1021.22 1021.51 1021.86 1022.52 1022.99
1013.73 1013.27 1013.38 1012.65 1012.45 1012.40 1011.82 1011.51 1011.27 1011.40 1011.43 1011.36 1011.40 1011.51 1011.68 1012.03 1012.34 1012.63 1013.27 1013.98 1014.48 1013.83 1013.79 1014.03 1014.88 1015.24 1015.63 1015.96 1016.30 1016.49 1016.73 1017.19 1017.55 1018.44 1019.06 1019.07 1020.08 1020.60 1021.04 1021.34 1021.97 1022.33 1022.63 1022.93
Wind_Speed
8 5 6 14 12 12 11 15 16 15 10 12 10 12 9 8 5 9 9 8 8 10 12 16 15 20 19 19 18 17 15 10 6 3 4 3 2 1 3 4 6 6 2 3
2 8 14 15 15 14 13 15 14 6 10 13 15 19 8 8 9 7 11 13 11 8 7 8 15 20 20 21 19 18 18 16 10 6 4 3 3 2 3 3 4 4 2 2
12 10 16 15 13 12 11 8 6 8 12 7 9 13 8 8 11 11 16 9 6 8 7 8 16 17 18 20 21 20 18 17 13 10 5 4 4 4 3 3 3 1 1 2
9 10 15 13 12 6 6 7 10 10 9 5 7 11 3 9 6 16 16 17 15 19 18 9 10 15 19 17 14 14 14 13 9 8 6 10 5 5 4 4 2 2 2 3
6 4 8 9 7 4 6 5 5 5 4 7 3 6 3 7 4 14 14 14 13 15 14 14 6 7 9 11 11 12 13 11 8 8 8 8 7 4 4 4 7 4 1 1
9 8 4 4 1 4 4 4 6 5 0 6 11 10 6 3 9 12 12 13 13 13 15 20 13 14 11 8 8 8 10 10 8 7 9 9 9 7 6 7 6 4 3 2
13 18 16 9 7 5 5 4 2 3 0 8 2 6 7 10 13 14 12 9 8 8 13 14 12 10 8 9 9 8 8 8 9 8 9 9 9 9 14 11 8 7 4 3
8 5 18 15 21 8 9 8 6 5 5 4 5 5 4 9 11 10 10 7 9 10 8 9 9 7 5 8 8 7 7 6 8 9 8 7 8 7 8 10 9 7 6 5
5 5 3 5 8 15 7 9 8 3 4 3 4 4 4 3 7 7 7 8 7 8 8 10 8 4 3 6 7 9 8 7 7 8 7 7 6 8 8 10 7 7 7 6
2 1 1 3 6 3 2 6 1 3 5 6 4 6 4 6 6 6 9 9 7 5 8 8 8 6 4 4 5 3 4 5 4 5 5 5 5 6 7 7 7 10 10 9
3 3 4 7 3 5 2 4 3 4 5 5 1 4 6 7 6 4 3 0 5 5 6 6 5 6 6 4 5 6 6 7 6 5 4 5 5 5 7 7 8 10 9 10
0 3 4 5 6 7 3 1 7 5 4 4 5 6 12 10 6 1 5 3 3 6 7 7 6 6 7 6 5 7 7 7 7 7 7 5 6 7 8 8 8 8 10 7
2 2 3 6 2 3 2 2 5 6 5 7 1 7 6 12 5 5 4 2 4 2 6 6 6 7 7 7 4 4 4 7 5 6 7 8 7 7 8 10 10 9 10 8
3 3 4 7 4 1 1 6 4 4 2 3 5 10 19 8 9 8 3 2 6 6 7 6 7 7 6 6 5 2 2 3 5 5 7 8 10 12 11 10 11 11 11 10
5 3 3 3 6 6 5 10 8 7 7 5 11 8 22 13 7 7 8 7 7 8 8 8 7 6 6 6 4 4 3 6 6 6 8 9 8 10 12 11 11 11 11 9
2 2 3 4 3 3 11 16 9 11 13 14 13 19 10 13 15 15 13 10 9 2 7 8 8 7 6 5 5 3 3 6 6 7 6 7 11 11 11 11 9 11 9 10
5 5 4 2 4 3 9 12 16 13 14 11 11 14 13 13 14 13 14 12 6 10 7 7 7 6 4 0 3 1 3 4 5 4 6 9 11 11 10 12 11 11 12 10
2 6 4 2 6 1 8 6 7 11 13 13 13 10 8 6 9 8 8 9 9 7 6 5 6 5 4 3 3 2 2 2 3 5 7 8 12 12 11 11 13 12 11 12
3 3 2 5 7 7 14 8 4 2 10 8 4 7 6 9 6 8 11 11 7 6 6 4 3 6 5 6 1 4 3 4 5 5 8 7 8 10 9 10 9 8 8 8
10 6 5 2 5 9 6 4 5 4 7 4 6 5 7 6 4 2 5 6 5 3 2 4 4 7 6 5 3 2 3 5 5 7 8 8 9 10 8 7 8 7 8 10
4 3 11 9 4 7 6 3 9 4 6 7 5 5 6 2 5 3 5 5 6 9 8 4 6 3 3 4 2 2 4 4 6 8 10 10 9 10 10 10 10 10 10 11
7 6 6 2 3 11 6 7 6 6 4 3 3 6 6 6 6 6 8 4 2 9 10 3 4 4 4 2 3 2 4 5 8 9 10 10 10 8 9 12 9 11 11 11
5 6 5 8 8 8 5 7 3 7 5 2 2 6 4 3 5 8 7 6 6 9 5 4 5 6 3 1 3 4 5 8 9 9 9 9 10 9 9 11 10 8 9 8
5 7 7 4 12 4 4 5 4 3 5 2 3 2 5 3 5 7 4 6 5 5 4 2 6 6 2 1 3 4 7 8 10 10 10 8 9 9 8 6 7 7 7 7
6 5 2 7 4 3 10 5 2 4 4 3 5 4 6 2 6 6 6 5 7 7 4 4 5 4 3 2 1 4 7 9 9 9 9 8 6 8 8 6 6 7 5 6
4 8 6 9 3 5 6 6 5 7 5 5 6 4 5 3 6 5 4 4 7 4 4 6 4 5 3 2 2 4 6 8 10 8 6 8 7 6 6 7 6 4 7 13
Wind_Direction
188 170 215 224 223 231 256 266 273 280 296 327 310 298 297 300 340 330 306 263 228 200 206 188 163 150 137 142 140 141 131 138 127 100 103 74 137 104 86 114 120 123 131 102
210 224 226 232 242 250 252 265 275 288 333 319 316 301 294 304 298 285 273 266 227 236 204 174 151 151 149 151 144 144 148 149 150 146 149 144 149 97 113 93 77 114 124 104
214 227 221 227 245 252 267 268 278 304 322 325 327 305 318 324 321 356 2 305 332 245 232 140 153 155 146 150 157 158 156 153 151 157 148 121 84 64 61 51 68 17 128 86
247 229 248 271 253 267 270 288 314 321 295 305 13 294 328 291 306 60 43 40 38 31 32 26 151 146 155 156 141 139 142 148 154 158 149 152 146 148 160 145 128 65 46 48
232 244 245 254 253 258 275 35 338 307 2 328 253 270 128 304 357 72 52 51 37 39 36 29 138 91 66 110 114 128 139 154 164 163 151 147 141 157 140 128 131 123 82 101
249 268 266 237 299 109 63 27 328 310 128 279 237 219 305 305 128 86 73 57 49 41 31 37 74 85 81 80 92 111 141 164 168 154 147 151 153 156 132 145 145 152 157 184
247 245 251 247 260 162 135 107 302 340 148 241 287 240 221 94 82 84 74 54 47 51 53 45 62 98 109 128 150 167 160 157 170 158 156 161 171 157 154 166 160 158 161 164
191 247 206 213 223 191 181 167 169 203 203 264 346 265 119 94 93 96 81 62 40 62 61 66 49 67 160 175 177 169 169 156 157 160 167 165 171 163 164 171 163 164 161 160
219 244 75 87 207 200 182 202 208 360 9 31 224 356 247 108 80 67 69 54 44 69 71 72 57 49 48 219 200 180 177 169 159 167 168 175 174 165 162 173 165 161 143 141
298 334 180 64 50 29 106 144 81 81 199 217 235 208 186 65 64 65 37 4 345 123 87 75 84 65 347 40 198 168 144 153 160 149 169 173 172 163 152 156 140 139 142 136
116 122 288 101 143 180 130 161 187 167 158 179 306 265 171 115 82 338 133 266 351 113 105 105 90 92 75 95 107 112 108 104 94 120 131 132 135 125 119 122 124 126 123 132
159 147 223 228 95 68 51 355 164 140 257 219 150 252 179 142 157 108 33 298 16 154 161 156 156 115 77 52 124 153 165 158 154 143 135 140 129 123 116 118 119 119 124 117
152 215 73 348 54 51 1 349 23 39 21 251 297 267 323 334 27 328 285 33 337 289 172 201 108 89 82 74 95 207 212 184 167 162 156 145 138 127 128 130 126 122 122 114
79 75 142 175 102 115 300 324 312 148 159 309 263 304 298 317 321 313 323 313 296 264 235 104 115 111 113 94 83 38 217 237 204 185 178 169 164 151 145 140 132 125 121 118
96 123 73 63 40 9 316 284 282 281 265 219 269 254 277 297 279 292 297 291 285 279 111 126 133 147 137 121 133 140 196 210 217 194 186 181 143 139 135 140 133 126 121 117
67 143 90 11 79 307 282 275 288 268 264 272 283 278 284 299 302 292 289 281 285 349 129 96 90 102 117 163 184 173 234 235 200 188 192 143 140 140 140 135 123 112 104 102
143 132 102 255 170 241 281 244 252 273 270 259 259 263 278 270 269 277 280 267 96 105 93 84 73 60 27 215 99 36 309 282 233 183 134 142 138 137 133 130 125 131 127 121
141 128 99 169 59 283 242 285 282 267 269 272 281 287 273 345 335 329 30 69 72 68 71 81 85 59 16 25 47 56 346 263 144 125 126 134 140 140 144 140 141 140 142 146
169 111 144 146 195 288 287 277 261 300 298 305 312 12 14 4 8 37 32 49 41 44 48 53 38 72 15 358 137 102 88 99 119 131 129 139 137 132 134 126 132 137 135 117
183 179 145 128 165 211 231 222 294 347 285 18 39 354 358 12 28 282 7 10 356 13 49 46 44 52 35 17 47 122 122 138 132 135 134 130 131 126 130 126 118 115 108 110
176 190 204 220 218 261 250 314 274 181 239 360 339 325 3 277 197 158 66 16 335 325 342 83 78 69 84 46 55 131 111 123 128 127 131 132 128 132 127 118 120 116 111 117
183 171 200 173 156 259 203 249 230 213 198 159 9 338 319 317 169 165 159 152 298 303 300 111 122 63 67 111 122 137 123 131 134 136 134 132 131 130 130 129 131 126 127 124
255 180 202 186 213 218 228 230 170 179 195 170 327 279 307 159 224 200 194 175 174 242 289 211 120 99 64 195 154 163 146 146 140 132 134 137 135 135 138 135 137 133 132 132
279 258 244 229 253 263 298 320 339 269 191 213 249 302 358 249 211 256 229 185 177 238 263 194 137 100 137 175 185 151 150 155 142 138 139 141 137 134 134 133 133 136 139 139
208 308 284 267 298 298 285 268 298 334 319 349 327 313 297 227 253 233 250 220 201 200 222 112 96 110 119 88 111 149 153 144 141 138 138 133 139 137 133 130 140 139 139 153
217 243 232 256 247 242 251 284 325 318 307 306 298 324 353 343 337 216 225 217 242 163 83 83 104 110 124 120 137 134 136 145 137 136 138 134 135 137 132 129 126 142 173 188